SCOUT B DEB, 3392

Orbit data source: Space-Track

SCOUT B DEB, 3392 is space debris in LEO originally from a launch on Thu, 08 Aug 1968 UTC launched from the Air Force Western Test Range (AFWTR). Debris objects in space refer to the collection of defunct objects orbiting the Earth. Examples of debris include non-operational satellites, rocket bodies, and fragments generated from explosions, collisions, or faulty payload assembly.

Loading next visibility...
Identifier
3392, 1968-066H
Orbit
LEO
Last TLE update
6 hours ago
Origin
Manufacturer
Unknown
Mission
Spacecraft
Bus & Motor
Unknown
Mass
Unknown
Launch date (UTC)
1968-08-08 (57 years ago)
Launch vehicle
Unknown
Launch site
Air Force Western Test Range (AFWTR)
Object type
Payload
Rocket body
Debris
Shape & HBR
Unknown
Radar Cross Section
Small (<0.1 m²)

Expand to show TLE details & history

TLE from 6 hours ago
0 SCOUT B DEB
1  3392U 68066H   25171.15515939  .00009599  00000-0  30243-2 0  9993
2  3392  80.6563 240.1854 0367638 131.5861 231.7445 14.07938229701143
Epoch: 2025-06-20T03:43Z
TLE epoch observation values (Epoch: 2025-06-20T03:43:25.771Z)
Latitude
-0.00004°
Longitude
-84.28454°
Altitude
1,040.1 km
Speed
7.245 km/s
True Right ascension
16h 00m 44s
True Declination
0° 00' 00"
Sunlit
Object was in full shadow at epoch
Visualization orbit readout
Latitude
-70.61638°
Longitude
123.17094°
Altitude
1,026.351 km
Speed
7.269 km/s
Apparent Right ascension
07h 55m 02s
Apparent Declination
-58° 12' 19"
Sunlit
Object is in daylight
Visualization observer readout
Local Sidereal Time
20:55:19
Azimuth
157.176° SSE
Elevation
-69.324°
Doppler factor
1
Orbital elements
Apogee altitude
1,129.871 km
Perigee altitude
597.401 km
Semi-major axis
7,241.773 km
Eccentricity
0.03676
Inclination
80.6563°
RAAN
240.1854°
Arg. of periapsis
131.5861°
True anomaly
Unknown
Mean anomaly
231.7445°
Eccentric anomaly
Unknown
Mean motion
3.52189 °/min
Orbital period
102.22 mins
BSTAR
0.0030243
Loading maneuver chart data...
Loading SW <> Apogee altitude chart data...
Loading historical data...
Loading historical data...
Loading historical data...
Loading historical data...
Loading historical data...
Loading historical data...
Loading historical data...

SCOUT B DEB Visibility forecast

Observer location: undefined°, undefined°

Span
Click to sort rows by Start time (UTC) header in descending order
Start Az.
Max El. time (UTC)
Max El. Az.
Max El.
End time (UTC)
End Az.
8 mins2025-06-20 16:14:18.468Z357.157° N2025-06-20 16:18:18.468Z92.957° ESE41.77°2025-06-20 16:22:18.468Z160.667° S
11 mins2025-06-21 05:24:18.468Z188.636° SSW2025-06-21 05:30:18.468Z353.721° N44.952°2025-06-21 05:35:18.468Z9.86° NNE
|